Last 48 Hours

Stanford Met Tower

Hourly Data | America/Los_Angeles
as of 5/8/26 7:16 PM PDT
Date & Time Temp (°F) RH (%) Dew Pt (°F) Wind Dir (°) Wind Spd (mph) Wind Gust (mph) Solar Rad (W/m2) Pressure (mb) NowCast AQI Value (AQI) NowCast AQI Status Latest Rain (In) Daily Rain (In) Daily Min Temp (°F) Daily Max Temp (°F)
5/8/26 - 1900 64.3 61 51.3 NNE | 14 6.0 13.6 260 1,018.0 23 Good 0.00 0.00 50.3 70.1
5/8/26 - 1800 66.8 58 52.6 N | 6 5.9 12.3 464 1,017.7 24 Good 0.00 0.00 50.3 70.1
5/8/26 - 1700 66.8 59 53.1 N | 3 6.8 12.2 650 1,017.9 25 Good 0.00 0.00 50.3 70.1
5/8/26 - 1600 67.8 59 53.9 N | 6 6.1 12.1 811 1,017.8 24 Good 0.00 0.00 50.3 70.1
5/8/26 - 1500 68.0 60 54.5 NNE | 21 5.5 12.7 915 1,018.2 22 Good 0.00 0.00 50.3 70.1
5/8/26 - 1400 65.9 64 54.4 NNE | 12 5.2 15.2 956 1,019.0 21 Good 0.00 0.00 50.3 67.5
5/8/26 - 1300 63.3 69 53.9 N | 354 5.8 13.0 955 1,019.6 21 Good 0.00 0.00 50.3 65.8
5/8/26 - 1200 62.2 70 53.2 N | 359 5.7 10.9 892 1,020.2 18 Good 0.00 0.00 50.3 64.2
5/8/26 - 1100 61.4 67 51.1 NE | 45 4.4 12.1 777 1,020.9 13 Good 0.00 0.00 50.3 63.6
5/8/26 - 1000 58.8 69 49.5 E | 79 2.6 9.2 603 1,021.3 12 Good 0.00 0.00 50.3 61.0
5/8/26 - 0900 55.1 76 48.6 N | 8 2.3 6.6 453 1,021.8 9 Good 0.00 0.00 50.3 57.8
5/8/26 - 0800 52.4 83 48.3 SW | 218 2.0 4.7 171 1,022.0 8 Good 0.00 0.00 50.3 54.5
5/8/26 - 0700 51.0 86 47.8 SW | 226 2.2 4.4 18 1,022.1 9 Good 0.00 0.00 50.3 54.4
5/8/26 - 0600 52.4 84 48.5 SW | 220 1.8 4.2 0 1,021.6 10 Good 0.00 0.00 51.8 54.4
5/8/26 - 0500 52.5 85 49.1 WNW | 302 3.3 7.4 0 1,021.6 8 Good 0.00 0.00 52.4 54.4
5/8/26 - 0400 53.0 84 49.2 WNW | 291 3.7 8.6 0 1,021.4 5 Good 0.00 0.00 52.4 54.4
5/8/26 - 0300 53.3 82 48.8 WNW | 291 2.4 4.7 0 1,021.2 7 Good 0.00 0.00 53.0 54.4
5/8/26 - 0200 53.7 82 49.4 WNW | 300 2.4 4.2 0 1,021.1 8 Good 0.00 0.00 53.2 54.4
5/8/26 - 0100 54.2 82 49.9 WNW | 300 2.7 5.2 0 1,021.3 8 Good 0.00 0.00 52.2 67.9
5/8/26 - 0000 53.6 94 52.8 WNW | 284 1.5 5.1 0 1,021.1 9 Good 0.00 0.00 52.2 67.9
5/7/26 - 2300 52.7 94 51.9 SSE | 148 2.1 5.5 0 1,021.0 9 Good 0.00 0.00 52.2 67.9
5/7/26 - 2200 54.4 90 52.4 S | 175 2.6 4.4 0 1,020.7 10 Good 0.00 0.00 52.8 67.9
5/7/26 - 2100 58.4 78 52.5 E | 101 3.2 5.9 1 1,020.0 11 Good 0.00 0.00 54.3 67.9
5/7/26 - 2000 61.0 71 52.3 NNE | 33 3.7 7.6 70 1,019.1 14 Good 0.00 0.00 54.3 67.9
5/7/26 - 1900 64.1 63 52.2 NNE | 25 5.6 11.8 258 1,018.8 14 Good 0.00 0.00 54.3 67.9
5/7/26 - 1800 66.6 64 54.9 NNE | 29 6.2 12.8 462 1,018.3 15 Good 0.00 0.00 54.3 67.9
5/7/26 - 1700 66.4 66 55.6 NNE | 14 6.6 13.6 647 1,018.2 16 Good 0.00 0.00 54.3 67.6
5/7/26 - 1600 66.4 68 56.5 N | 3 6.3 11.3 800 1,018.2 17 Good 0.00 0.00 54.3 67.6
5/7/26 - 1500 65.3 70 56.3 NNE | 12 7.1 12.9 902 1,018.5 20 Good 0.00 0.00 54.3 66.5
5/7/26 - 1400 64.6 71 55.8 N | 11 6.2 12.0 949 1,019.1 22 Good 0.00 0.00 54.3 66.5
5/7/26 - 1300 64.5 70 55.5 NNE | 13 3.8 10.6 926 1,019.8 22 Good 0.00 0.00 54.3 66.1
5/7/26 - 1200 60.6 78 54.6 WNW | 300 1.9 5.9 726 1,020.8 20 Good 0.00 0.00 54.3 63.8
5/7/26 - 1100 57.3 86 54.0 NW | 326 2.1 5.3 288 1,021.7 17 Good 0.00 0.00 54.3 58.9
5/7/26 - 1000 56.0 88 53.5 N | 356 2.0 5.9 164 1,021.9 15 Good 0.00 0.00 54.3 57.9
5/7/26 - 0900 55.0 89 52.9 N | 359 2.5 4.7 95 1,021.9 13 Good 0.00 0.00 54.3 57.9
5/7/26 - 0800 54.5 89 52.3 N | 355 2.1 5.2 42 1,021.9 13 Good 0.00 0.00 54.3 57.9
5/7/26 - 0700 54.5 89 52.2 N | 358 2.9 5.2 8 1,021.7 12 Good 0.00 0.00 54.3 57.9
5/7/26 - 0600 54.8 89 52.6 N | 0 2.4 4.8 0 1,021.4 12 Good 0.00 0.00 54.6 57.9
5/7/26 - 0500 55.3 91 53.6 NNE | 24 2.8 4.5 0 1,021.3 12 Good 0.00 0.00 55.0 57.9
5/7/26 - 0400 55.6 91 54.0 NE | 55 2.3 5.4 0 1,021.4 13 Good 0.00 0.00 55.2 57.9
5/7/26 - 0300 56.6 90 54.6 SSE | 153 2.2 6.9 0 1,021.3 13 Good 0.00 0.00 56.3 57.9
5/7/26 - 0200 57.0 88 54.6 SSE | 163 2.3 7.5 0 1,021.7 11 Good 0.00 0.00 56.4 57.9
5/7/26 - 0100 56.9 88 54.5 S | 182 1.7 4.9 0 1,021.8 10 Good 0.00 0.00 49.7 72.8
5/7/26 - 0000 55.6 91 53.9 ESE | 111 1.8 4.7 0 1,021.9 10 Good 0.00 0.00 49.7 72.8
5/6/26 - 2300 55.3 89 53.3 ENE | 76 2.4 5.2 0 1,022.0 9 Good 0.00 0.00 49.7 72.8
5/6/26 - 2200 57.0 85 53.5 NE | 43 2.8 5.1 0 1,022.0 10 Good 0.00 0.00 49.7 72.8
5/6/26 - 2100 60.6 75 53.6 NNE | 21 3.0 5.9 1 1,021.2 10 Good 0.00 0.00 49.7 72.8
5/6/26 - 2000 66.2 64 54.6 W | 259 3.0 8.6 62 1,020.2 10 Good 0.00 0.00 49.7 72.8
5/6/26 - 1900 69.4 59 55.7 N | 349 4.6 10.2 233 1,019.5 9 Good 0.00 0.00 49.7 72.8
Max 69.4 94 56.5 - 7.1 15.2 956 1,022.1 25 - 0.00 0.00 56.4 72.8
Avg 59.2 77 52.7 - 3.6 8.0 297 1,020.5 14 - 0.00 - - -
Min 51.0 58 47.8 - 1.5 4.2 0 1,017.7 5 - 0.00 0.00 49.7 54.4
Total - - - - - - - - - - 0.00 - - -